TimeCDT,TemperatureF,Dew PointF,Humidity,Sea Level PressureIn,VisibilityMPH,Wind Direction,Wind SpeedMPH,Gust SpeedMPH,PrecipitationIn,Events,Conditions,WindDirDegrees,DateUTC
12:53 AM,48.0,42.1,80,30.03,10.0,NNW,8.1,-,N/A,,Clear,340,2013-03-19 05:53:00
1:53 AM,46.0,41.0,83,30.06,10.0,NNW,5.8,-,N/A,,Clear,340,2013-03-19 06:53:00
2:53 AM,45.0,39.9,82,30.08,10.0,NNW,4.6,-,N/A,,Clear,340,2013-03-19 07:53:00
3:53 AM,44.1,39.0,82,30.08,10.0,Calm,Calm,-,N/A,,Clear,0,2013-03-19 08:53:00
4:44 AM,37.4,35.6,93,30.07,1.8,SSE,3.5,-,N/A,,Clear,160,2013-03-19 09:44:00
4:53 AM,39.0,37.0,93,30.07,2.5,Calm,Calm,-,N/A,,Clear,0,2013-03-19 09:53:00
5:03 AM,37.4,35.6,93,30.07,0.8,Calm,Calm,-,N/A,,Clear,0,2013-03-19 10:03:00
5:21 AM,39.2,35.6,87,30.07,0.2,Calm,Calm,-,N/A,Fog,Fog,0,2013-03-19 10:21:00
5:53 AM,37.9,35.1,89,30.07,0.2,Calm,Calm,-,N/A,Fog,Fog,0,2013-03-19 10:53:00
6:14 AM,37.4,35.6,93,30.08,0.5,Calm,Calm,-,N/A,Fog,Fog,0,2013-03-19 11:14:00
6:28 AM,37.4,33.8,87,30.08,0.2,Calm,Calm,-,N/A,Fog,Fog,0,2013-03-19 11:28:00
6:40 AM,35.6,33.8,93,30.07,0.5,Calm,Calm,-,N/A,Fog,Fog,0,2013-03-19 11:40:00
6:49 AM,35.6,32.0,87,30.07,0.2,Calm,Calm,-,N/A,Fog,Fog,0,2013-03-19 11:49:00
6:53 AM,35.1,33.1,92,30.08,0.2,Calm,Calm,-,N/A,Fog,Fog,0,2013-03-19 11:53:00
7:53 AM,37.9,36.0,93,30.11,0.2,Calm,Calm,-,N/A,Fog,Fog,0,2013-03-19 12:53:00
8:03 AM,39.2,37.4,93,30.11,0.5,Calm,Calm,-,N/A,Fog,Fog,0,2013-03-19 13:03:00
8:14 AM,39.2,37.4,93,30.11,0.2,Calm,Calm,-,N/A,Fog,Fog,0,2013-03-19 13:14:00
8:53 AM,43.0,41.0,93,30.12,0.2,Calm,Calm,-,N/A,Fog,Fog,0,2013-03-19 13:53:00
9:10 AM,44.6,42.8,93,30.12,1.0,Calm,Calm,-,N/A,,Mist,0,2013-03-19 14:10:00
9:13 AM,46.4,42.8,87,30.12,3.0,Calm,Calm,-,N/A,,Mostly Cloudy,0,2013-03-19 14:13:00
9:26 AM,46.4,42.8,87,30.12,6.0,Calm,Calm,-,N/A,,Scattered Clouds,0,2013-03-19 14:26:00
9:53 AM,50.0,43.0,77,30.13,10.0,Calm,Calm,-,N/A,,Clear,0,2013-03-19 14:53:00
10:53 AM,53.1,39.0,59,30.16,10.0,Calm,Calm,-,N/A,,Clear,0,2013-03-19 15:53:00
11:53 AM,55.0,37.0,51,30.18,10.0,Calm,Calm,-,N/A,,Partly Cloudy,0,2013-03-19 16:53:00
12:53 PM,57.0,39.0,51,30.17,10.0,West,8.1,-,N/A,,Partly Cloudy,270,2013-03-19 17:53:00
1:53 PM,61.0,30.0,31,30.16,10.0,Variable,5.8,-,N/A,,Clear,0,2013-03-19 18:53:00
2:53 PM,61.0,27.0,27,30.14,10.0,NNW,4.6,-,N/A,,Partly Cloudy,330,2013-03-19 19:53:00
3:53 PM,62.1,26.1,25,30.13,10.0,WNW,6.9,-,N/A,,Clear,300,2013-03-19 20:53:00
4:53 PM,62.1,25.0,24,30.12,10.0,NNW,8.1,-,N/A,,Clear,340,2013-03-19 21:53:00
5:53 PM,60.1,23.0,24,30.11,10.0,NNE,5.8,-,N/A,,Clear,20,2013-03-19 22:53:00
6:53 PM,57.0,19.0,23,30.11,10.0,NNE,9.2,16.1,N/A,,Clear,20,2013-03-19 23:53:00
7:53 PM,55.0,21.9,28,30.12,10.0,NNE,6.9,-,N/A,,Clear,20,2013-03-20 00:53:00
8:53 PM,53.1,23.0,31,30.14,10.0,North,3.5,-,N/A,,Clear,10,2013-03-20 01:53:00
9:53 PM,51.1,19.9,29,30.16,10.0,ENE,8.1,-,N/A,,Clear,60,2013-03-20 02:53:00
10:53 PM,50.0,19.9,31,30.17,10.0,NE,9.2,-,N/A,,Clear,50,2013-03-20 03:53:00
11:53 PM,48.0,19.9,33,30.18,10.0,NE,5.8,-,N/A,,Clear,40,2013-03-20 04:53:00